Content
SEND FEEDBACK

Daily
Averages
Monthly
Summary
United States of America

MANCHESTER, IOWA


Home > North America > United States > Iowa
Elevation: 990 feet     Latitude: 42 29N     Longitude: 091 27W

WEATHER
 
SELECT A DAY
Number of Records: 420,860;   Date Range: 2/11/95 - 7/23/14
 
SHARE

PRINT THIS DATA

[ ← Previous Day ]
WEATHER ALMANAC - JANUARY 31, 2013
[ Next Day → ]
[ °C ]   °F
Weather ElementAverageHighLow
Temperature6.4 °F15.8 °F (12:35 am)-0.4 °F (9:15 pm)
Dewpoint-0.6 °F10.4 °F (12:35 am)-7.6 °F (7:55 pm)
Humidity73.1 %79 % (12:35 am)66 % (7:55 pm)
Barometer29.99 in30.27 in (11:35 pm)29.76 in (12:35 am)
Wind Speed19.3 mph26.5 mph (1:35 pm)
Wind Gust34.5 mph (10:55 am)
Weather ElementAverage
Visibility6.6 mi
Wind DirectionWNW (293.3 °)

Weather ElementTotal
Precipitation---
Heating Degree Days57.3 (Base 65)
Averaged from 69 records on January 31, 2013
WEATHER CONDITIONS BREAKOUT
WIND DIRECTION BREAKOUT
WEATHER BY HOUR - JANUARY 31, 2013
[ °C ]   °F
Local TimeTemperatureDewpointHumidityBarometerVisibilityWind DirectionWind SpeedGust SpeedPrecipitationEventsConditions
12:35 AM15.8 °F10.4 °F79 %29.76 in3.0 miWest (280°)18.4 mphSnowLight Snow
12:55 AM15.8 °F8.6 °F73 %29.77 in10.0 miWNW (290°)13.8 mph25.3 mphOvercast
1:15 AM15.8 °F8.6 °F73 %29.77 in3.0 miWNW (290°)18.4 mph25.3 mphSnowLight Snow
1:35 AM15.8 °F8.6 °F73 %29.77 in5.0 miWNW (290°)15.0 mphSnowLight Snow
1:55 AM15.8 °F8.6 °F73 %29.78 in7.0 miWNW (290°)16.1 mph21.9 mphSnowLight Snow
2:15 AM15.8 °F8.6 °F73 %29.79 in7.0 miWNW (290°)18.4 mphOvercast
2:35 AM14.0 °F8.6 °F79 %29.80 in7.0 miWest (280°)17.3 mphSnowLight Snow
2:55 AM14.0 °F8.6 °F79 %29.80 in7.0 miWNW (290°)18.4 mph24.2 mphOvercast
3:15 AM12.2 °F6.8 °F79 %29.80 in5.0 miWest (280°)20.7 mph24.2 mphHaze
3:35 AM10.4 °F5.0 °F79 %29.80 in10.0 miWNW (290°)18.4 mph24.2 mphOvercast
3:55 AM10.4 °F3.2 °F73 %29.81 in10.0 miWest (280°)13.8 mphOvercast
4:15 AM8.6 °F3.2 °F79 %29.81 in10.0 miWNW (290°)13.8 mphOvercast
4:35 AM8.6 °F3.2 °F79 %29.82 in10.0 miWNW (290°)13.8 mphMostly Cloudy
4:55 AM8.6 °F1.4 °F73 %29.82 in10.0 miWest (280°)13.8 mphScattered Clouds
5:15 AM8.6 °F1.4 °F73 %29.83 in10.0 miWNW (290°)13.8 mphScattered Clouds
5:35 AM8.6 °F1.4 °F73 %29.83 in10.0 miWNW (290°)18.4 mphScattered Clouds
5:55 AM8.6 °F1.4 °F73 %29.83 in10.0 miWNW (290°)16.1 mphMostly Cloudy
6:15 AM6.8 °F1.4 °F79 %29.84 in10.0 miWest (280°)15.0 mphScattered Clouds
6:55 AM6.8 °F1.4 °F79 %29.87 in10.0 miWNW (290°)17.3 mph23.0 mphOvercast
7:15 AM6.8 °F1.4 °F79 %29.87 in10.0 miWNW (290°)18.4 mph23.0 mphOvercast
7:35 AM6.8 °F-0.4 °F72 %29.88 in7.0 miWNW (290°)20.7 mph26.5 mphOvercast
7:55 AM6.8 °F-0.4 °F72 %29.88 in10.0 miWNW (290°)17.3 mph25.3 mphOvercast
8:15 AM6.8 °F-0.4 °F72 %29.89 in10.0 miWNW (300°)17.3 mphOvercast
8:35 AM6.8 °F-0.4 °F72 %29.90 in10.0 miWNW (290°)12.7 mphOvercast
8:55 AM6.8 °F-0.4 °F72 %29.90 in10.0 miWNW (290°)19.6 mph24.2 mphOvercast
9:15 AM6.8 °F-0.4 °F72 %29.91 in5.0 miWNW (290°)21.9 mph29.9 mphHaze
9:35 AM6.8 °F-0.4 °F72 %29.92 in5.0 miWNW (300°)23.0 mph29.9 mphHaze
9:55 AM6.8 °F-0.4 °F72 %29.93 in4.0 miWNW (300°)25.3 mph31.1 mphHaze
10:15 AM6.8 °F-0.4 °F72 %29.95 in7.0 miWNW (290°)20.7 mph27.6 mphMostly Cloudy
10:35 AM6.8 °F-0.4 °F72 %29.96 in3.0 miWNW (290°)23.0 mph27.6 mphHaze
10:55 AM6.8 °F-2.2 °F67 %29.97 in2.5 miWNW (300°)24.2 mph34.5 mphHaze
11:15 AM6.8 °F-0.4 °F72 %29.97 in5.0 miWNW (300°)20.7 mph29.9 mphHaze
11:35 AM6.8 °F-2.2 °F67 %29.98 in3.0 miWNW (300°)21.9 mph32.2 mphHaze
11:55 AM6.8 °F-0.4 °F72 %29.98 in2.5 miNW (310°)25.3 mph32.2 mphHaze
12:15 PM6.8 °F-0.4 °F72 %29.99 in3.0 miWNW (300°)18.4 mphHaze
12:35 PM6.8 °F-0.4 °F72 %30.00 in3.0 miWNW (290°)23.0 mph29.9 mphHaze
12:55 PM6.8 °F-0.4 °F72 %30.00 in2.5 miWNW (300°)23.0 mph32.2 mphHaze
1:15 PM6.8 °F-0.4 °F72 %30.00 in2.0 miWNW (290°)25.3 mph33.4 mphHaze
1:35 PM6.8 °F-0.4 °F72 %30.01 in2.5 miWNW (300°)26.5 mphHaze
1:55 PM6.8 °F-0.4 °F72 %30.01 in3.0 miWNW (300°)26.5 mph33.4 mphHaze
2:15 PM6.8 °F-0.4 °F72 %30.02 in2.0 miWNW (300°)26.5 mph33.4 mphHaze
2:35 PM6.8 °F-2.2 °F67 %30.03 in7.0 miWNW (290°)18.4 mph27.6 mphMostly Cloudy
2:55 PM6.8 °F-0.4 °F72 %30.03 in2.5 miWNW (290°)26.5 mph34.5 mphHaze
3:15 PM6.8 °F-2.2 °F67 %30.05 in2.5 miWNW (290°)26.5 mph33.4 mphHaze
3:35 PM6.8 °F-0.4 °F72 %30.06 in1.5 miWNW (300°)26.5 mph32.2 mphHaze
3:55 PM6.8 °F-0.4 °F72 %30.07 in2.0 miWNW (300°)25.3 mph33.4 mphHaze
4:15 PM5.0 °F-2.2 °F72 %30.08 in7.0 miWNW (290°)23.0 mph29.9 mphOvercast
4:35 PM5.0 °F-2.2 °F72 %30.08 in4.0 miWNW (300°)23.0 mph29.9 mphHaze
4:55 PM3.2 °F-2.2 °F78 %30.10 in1.8 miWNW (290°)20.7 mph31.1 mphHaze
5:15 PM3.2 °F-2.2 °F78 %30.11 in3.0 miWNW (290°)21.9 mph31.1 mphHaze
5:35 PM3.2 °F-2.2 °F78 %30.12 in4.0 miNW (310°)21.9 mph28.8 mphHaze
5:55 PM3.2 °F-2.2 °F78 %30.13 in2.0 miWNW (300°)21.9 mph28.8 mphHaze
6:15 PM3.2 °F-2.2 °F78 %30.14 in2.0 miWNW (300°)25.3 mph29.9 mphHaze
6:35 PM3.2 °F-4.0 °F72 %30.16 in5.0 miWNW (300°)20.7 mph27.6 mphHaze
6:55 PM1.4 °F-5.8 °F72 %30.17 in10.0 miWNW (300°)18.4 mph25.3 mphMostly Cloudy
7:15 PM1.4 °F-5.8 °F72 %30.18 in10.0 miWNW (300°)18.4 mph27.6 mphMostly Cloudy
7:35 PM1.4 °F-5.8 °F72 %30.18 in10.0 miWNW (300°)20.7 mphMostly Cloudy
7:55 PM1.4 °F-7.6 °F66 %30.19 in10.0 miWNW (290°)13.8 mph23.0 mphOvercast
8:15 PM1.4 °F-5.8 °F72 %30.20 in10.0 miWNW (300°)15.0 mph24.2 mphOvercast
8:35 PM1.4 °F-5.8 °F72 %30.20 in7.0 miWNW (290°)15.0 mph25.3 mphOvercast
8:55 PM1.4 °F-7.6 °F66 %30.21 in10.0 miWNW (300°)16.1 mph21.9 mphOvercast
9:15 PM-0.4 °F-7.6 °F72 %30.21 in10.0 miWNW (300°)16.1 mphOvercast
9:35 PM-0.4 °F-7.6 °F72 %30.23 in10.0 miWNW (290°)12.7 mph19.6 mphOvercast
9:55 PM-0.4 °F-7.6 °F72 %30.24 in10.0 miWNW (300°)12.7 mph18.4 mphOvercast
10:15 PM-0.4 °F-7.6 °F72 %30.24 in10.0 miWNW (290°)15.0 mphOvercast
10:35 PM-0.4 °F-7.6 °F72 %30.24 in10.0 miWNW (290°)13.8 mph23.0 mphOvercast
10:55 PM-0.4 °F-7.6 °F72 %30.24 in10.0 miWNW (300°)17.3 mph26.5 mphOvercast
11:15 PM-0.4 °F-7.6 °F72 %30.25 in10.0 miWNW (290°)18.4 mphOvercast
11:35 PM-0.4 °F-7.6 °F72 %30.27 in10.0 miWNW (290°)15.0 mph21.9 mphOvercast
Hourly data recorded from KMXO, located miles away from Manchester, Iowa







STORIES FROM OUR PARTNERS